[[{"header":{"parameterUnit":"m.s-1","parameterCategory":1,"la1":30.2991,"la2":30.254,"lo1":-89.0895,"lo2":-89.0444,"dy":0.0017,"dx":0.0017,"nx":28,"ny":28,"refTime":"2024-03-19T21:00:00:Z","depth":0,"parameterNumber":2,"parameterNumberName":"U-component_of_WINDS"},"data":[0,0,0,0,0,0,0,0,0,0,0,0,0,0,0,0,0,0,0,0,0,0,0,0,0,0,0,0,0,0,0,0,0,0,0,0,0,0,0,0,0,0,0,0,0,0,0,0,0,0,0,0,0,0,0,0,0,0,0.1611,0.1612,0,0.1711,0.1712,0.1713,0.1761,0.1761,0.1761,0.1761,0.1864,0.1866,0.1869,0,0,0,0,0,0,0,0,0,0,0,0,0,0.1459,0.1462,0.1611,0.1612,0.1613,0.1711,0.1712,0.1714,0.1761,0.1761,0.1761,0.1761,0.1863,0.1866,0.1869,0,0,0,0,0,0,0,0,0,0,0,0,0,0.1539,0.1463,0.1611,0.1649,0.1653,0.1711,0.1712,0.1714,0.1761,0.1761,0.1761,0.1761,0.1862,0.1866,0.187,0.1897,0,0,0.1882,0.1884,0,0,0,0,0,0,0,0,0.1534,0.1544,0.1642,0.1646,0.1651,0.1724,0.1697,0.1775,0.1761,0.172,0.1761,0.1761,0.1817,0.1825,0.1844,0.1902,0.1906,0.1883,0.1885,0.1887,0.1888,0,0,0,0,0,0,0,0.1529,0.154,0.1651,0.1643,0.1649,0.1661,0.1672,0.1712,0.1768,0.1724,0.1728,0.1739,0.182,0.184,0.1847,0.1907,0.1883,0.1886,0.1889,0.1891,0.1991,0.1992,0,0,0,0,0,0,0.1517,0.1536,0.1647,0.1654,0.1592,0.1663,0.1676,0.1701,0.1768,0.1778,0.1739,0.1741,0.1833,0.1842,0.185,0.1886,0.1887,0.1891,0.1893,0.1991,0.1991,0.1992,0,0,0,0,0,0,0.1514,0.1527,0.1643,0.1596,0.1611,0.1666,0.1693,0.1703,0.1723,0.1779,0.1789,0.1749,0.1833,0.1845,0.1885,0.189,0.1893,0.1897,0.1991,0.1991,0.1991,0.1958,0,0,0,0,0,0,0.1509,0.1525,0.1536,0.1596,0.1614,0.1676,0.1694,0.1705,0.173,0.1733,0.1791,0.1801,0.1834,0.1878,0.1889,0.1896,0.19,0.1991,0.1991,0.1991,0.1958,0.1957,0.1955,0,0,0,0,0,0.1504,0.1523,0.1537,0.155,0.1629,0.1676,0.1687,0.1725,0.173,0.1741,0.1777,0.1799,0.1888,0.1882,0.1894,0.1903,0.1991,0.1991,0.1991,0.1959,0.1957,0.1955,0,0,0,0,0,0,0.1463,0.1532,0.1548,0.1587,0.1625,0.1684,0.17,0.1721,0.1759,0.1761,0.1806,0.1819,0.1855,0.1883,0.1875,0.1932,0.1941,0.1944,0.1912,0.1911,0.1909,0.1902,0.1903,0,0,0,0,0,0.1459,0.1492,0.155,0.1579,0.1597,0.1645,0.1667,0.1693,0.1735,0.1752,0.179,0.183,0.1867,0.189,0.1927,0.1962,0.1975,0.1974,0.1973,0.1971,0.1973,0.1993,0.1993,0.1993,0.1993,0.1993,0,0,0.145,0.1492,0.151,0.1572,0.1605,0.1638,0.1659,0.1693,0.1718,0.1757,0.1797,0.1827,0.1874,0.1911,0.193,0.1936,0.1976,0.1971,0.197,0.1973,0.1993,0.1993,0.1993,0.1993,0.1993,0.1993,0,0,0.1452,0.1486,0.1514,0.1546,0.1596,0.1628,0.1634,0.169,0.1711,0.1752,0.1782,0.1811,0.1874,0.1906,0.1931,0.1943,0.1964,0.1953,0.1945,0.1964,0.1964,0.1964,0.1968,0.1969,0.1955,0.1955,0.1955,0,0.1435,0.1486,0.1526,0.1558,0.1584,0.162,0.1648,0.1678,0.1737,0.1754,0.1759,0.1838,0.1873,0.1918,0.192,0.1939,0.1948,0.1947,0.1961,0.1961,0.1962,0.1966,0.1968,0.1954,0.1954,0.1954,0.1954,0,0.1463,0.1498,0.1514,0.157,0.1597,0.1627,0.1671,0.1694,0.1717,0.1747,0.1788,0.183,0.1876,0.1889,0.1911,0.1937,0.1939,0.1952,0.1962,0.196,0.1964,0.1966,0.1951,0.1952,0.1952,0.1953,0,0,0.1443,0.1519,0.1524,0.155,0.1606,0.1634,0.1665,0.171,0.1729,0.1768,0.1795,0.1846,0.1858,0.1886,0.1912,0.1929,0.1935,0.194,0.1942,0.1938,0.1965,0.1955,0.1956,0.1949,0.1949,0.195,0.1961,0,0.1452,0.151,0.1545,0.1589,0.1621,0.1655,0.1682,0.1719,0.1748,0.178,0.1812,0.1847,0.1861,0.1878,0.1896,0.193,0.1941,0.193,0.1974,0.1975,0.1962,0.1959,0.1948,0.1957,0.1963,0.1963,0.1964,0,0.1471,0.1509,0.1555,0.1607,0.1622,0.1646,0.1689,0.1719,0.1761,0.1781,0.1811,0.1838,0.1871,0.1878,0.1925,0.1916,0.1936,0.1956,0.1957,0.1963,0.1969,0.1964,0.1961,0.1962,0.1967,0.1967,0.1966,0,0.1451,0.1514,0.155,0.157,0.1632,0.1648,0.1674,0.1717,0.1741,0.1778,0.1795,0.1835,0.1858,0.1889,0.1925,0.1927,0.1968,0.1978,0.1985,0.1984,0.1993,0.1992,0.1992,0.2005,0.2005,0.2005,0.2005,0,0.1458,0.1485,0.1542,0.1564,0.1594,0.1635,0.1664,0.1693,0.173,0.1758,0.179,0.1815,0.1862,0.1893,0.1921,0.1955,0.1965,0.1982,0.1989,0.1979,0.1977,0.1993,0.1994,0.2005,0.2005,0.2005,0.2005,0,0.1442,0.1481,0.1522,0.1577,0.1591,0.1611,0.1658,0.168,0.171,0.1745,0.1755,0.1803,0.1841,0.188,0.1931,0.195,0.1983,0.1993,0.1969,0.1973,0.1978,0.1977,0.1989,0.1992,0.2002,0.2002,0.2002,0,0.1444,0.1466,0.1522,0.1543,0.1569,0.1602,0.1627,0.1667,0.1691,0.174,0.1756,0.1796,0.1831,0.1889,0.1928,0.1967,0.1979,0.198,0.1985,0.1974,0.1979,0.1977,0.1979,0.1979,0.1978,0.1978,0.1978,0,0.1443,0.1461,0.1496,0.1537,0.1565,0.1599,0.1634,0.165,0.1696,0.1722,0.1761,0.1787,0.1839,0.1878,0.1922,0.1949,0.1971,0.1976,0.198,0.197,0.1955,0.1963,0.1964,0.1976,0.1976,0.1976,0.1976,0.1976,0.1437,0.1457,0.15,0.1537,0.1568,0.1599,0.1623,0.1655,0.1689,0.1734,0.1755,0.1794,0.1835,0.1896,0.1922,0.1952,0.1959,0.1964,0.1966,0.1966,0.1964,0.1949,0.196,0.196,0.1961,0.1961,0.1961,0,0.1438,0.1467,0.15,0.1548,0.1577,0.1595,0.1635,0.1657,0.1691,0.1727,0.176,0.1804,0.1842,0.1883,0.1923,0.194,0.1951,0.1949,0.1948,0.1954,0.1956,0.1949,0.1939,0.1939,0.1939,0.1939,0.1939,0.1939,0.1442,0.1477,0.15,0.155,0.1579,0.1617,0.1638,0.1667,0.1696,0.1744,0.1775,0.1802,0.184,0.1883,0.1918,0.1929,0.1942,0.1937,0.1951,0.1952,0.1954,0.1956,0.1949,0.194,0.194,0.1947,0.1947,0.1947]},{"header":{"parameterUnit":"m.s-1","parameterCategory":1,"la1":30.2991,"la2":30.254,"lo1":-89.0895,"lo2":-89.0444,"dy":0.0017,"dx":0.0017,"nx":28,"ny":28,"refTime":"2024-03-19T21:00:00:Z","depth":0,"parameterNumber":3,"parameterNumberName":"V-component_of_WINDS"},"data":[0,0,0,0,0,0,0,0,0,0,0,0,0,0,0,0,0,0,0,0,0,0,0,0,0,0,0,0,0,0,0,0,0,0,0,0,0,0,0,0,0,0,0,0,0,0,0,0,0,0,0,0,0,0,0,0,0,0,2.3844,2.3844,0,2.3827,2.3827,2.3827,2.3811,2.3811,2.3811,2.3811,2.3792,2.3792,2.3792,0,0,0,0,0,0,0,0,0,0,0,0,0,2.3862,2.3862,2.3844,2.3844,2.3844,2.3827,2.3827,2.3827,2.3811,2.3811,2.3811,2.3811,2.3793,2.3792,2.3792,0,0,0,0,0,0,0,0,0,0,0,0,0,2.3851,2.3862,2.3844,2.3834,2.3833,2.3827,2.3827,2.3827,2.3811,2.3811,2.3811,2.3811,2.3793,2.3792,2.3792,2.3794,0,0,2.379,2.379,0,0,0,0,0,0,0,0,2.3851,2.385,2.3836,2.3835,2.3834,2.3821,2.3827,2.3816,2.3812,2.382,2.3811,2.381,2.3802,2.3801,2.3798,2.3794,2.3793,2.379,2.379,2.379,2.379,0,0,0,0,0,0,0,2.3852,2.3851,2.3838,2.3836,2.3834,2.383,2.3828,2.3825,2.3813,2.3819,2.3818,2.3816,2.3801,2.3799,2.3798,2.3793,2.379,2.379,2.379,2.3789,2.3788,2.3789,0,0,0,0,0,0,2.3855,2.3852,2.3838,2.3837,2.3842,2.383,2.3828,2.3826,2.3813,2.381,2.3816,2.3815,2.38,2.3798,2.3797,2.3799,2.379,2.3789,2.3789,2.3788,2.3788,2.3789,0,0,0,0,0,0,2.3855,2.3854,2.3839,2.3844,2.3842,2.383,2.3828,2.3825,2.3823,2.3811,2.3808,2.3816,2.3799,2.3798,2.3795,2.3798,2.3789,2.3789,2.3788,2.3788,2.3789,2.3803,0,0,0,0,0,0,2.3856,2.3854,2.3855,2.3844,2.3842,2.3838,2.3828,2.3825,2.3822,2.3821,2.381,2.3807,2.3799,2.3796,2.3795,2.3797,2.3788,2.3788,2.3788,2.3789,2.3802,2.3804,2.3805,0,0,0,0,0,2.3857,2.386,2.3855,2.3854,2.3843,2.3838,2.3836,2.3827,2.3822,2.3823,2.3815,2.3808,2.3798,2.3796,2.3794,2.3797,2.3787,2.3788,2.3788,2.3801,2.3803,2.3805,0,0,0,0,0,0,2.3871,2.3858,2.3853,2.3853,2.3847,2.3835,2.3836,2.3829,2.3824,2.3823,2.3811,2.3809,2.3807,2.3802,2.38,2.3798,2.3792,2.3792,2.3802,2.3804,2.3805,2.3806,2.3788,0,0,0,0,0,2.3875,2.3872,2.3861,2.3862,2.3859,2.3848,2.3845,2.3839,2.3832,2.3829,2.3821,2.3814,2.3809,2.3806,2.3801,2.3801,2.3798,2.3802,2.3804,2.3805,2.3805,2.3804,2.3805,2.3791,2.3791,2.3791,0,0,2.3881,2.3874,2.3873,2.3864,2.3859,2.3856,2.3846,2.3843,2.3841,2.3828,2.3825,2.3819,2.381,2.3809,2.3808,2.3804,2.3809,2.3806,2.3807,2.3806,2.3805,2.3806,2.3807,2.3791,2.3791,2.3791,0,0,2.3892,2.3886,2.3886,2.3881,2.3872,2.3865,2.3865,2.3855,2.385,2.3847,2.3837,2.3834,2.3826,2.382,2.3816,2.3824,2.3817,2.3823,2.3831,2.383,2.3831,2.3832,2.3834,2.3835,2.3823,2.3823,2.3823,0,2.3901,2.3896,2.3887,2.3885,2.3881,2.387,2.3869,2.3864,2.3855,2.3852,2.3848,2.3838,2.3831,2.3828,2.383,2.3827,2.3827,2.3824,2.3832,2.3832,2.3833,2.3835,2.3836,2.3824,2.3824,2.3824,2.3824,0,2.3908,2.3905,2.3906,2.3897,2.3893,2.3892,2.3882,2.3879,2.3873,2.3866,2.3863,2.3854,2.3847,2.3846,2.384,2.3842,2.384,2.3834,2.3827,2.3835,2.3837,2.3838,2.3825,2.3825,2.3825,2.3825,0,0,2.3927,2.3913,2.3913,2.3909,2.3899,2.3896,2.3894,2.3887,2.3885,2.3879,2.3876,2.387,2.3864,2.386,2.3852,2.3852,2.3858,2.3846,2.3846,2.3848,2.3859,2.3863,2.3864,2.3853,2.3853,2.3853,2.3859,0,2.3935,2.3931,2.3922,2.3921,2.3918,2.3907,2.3905,2.3899,2.3892,2.3888,2.3881,2.3876,2.387,2.3867,2.3865,2.3857,2.386,2.3857,2.385,2.385,2.3852,2.3865,2.3869,2.3875,2.386,2.386,2.386,0,2.3944,2.3939,2.3937,2.3927,2.3925,2.3924,2.3917,2.3913,2.3905,2.39,2.3895,2.3887,2.3884,2.3878,2.3873,2.3871,2.3868,2.3863,2.3863,2.3862,2.3855,2.3863,2.3877,2.3877,2.3861,2.3861,2.3861,0,2.3957,2.395,2.3948,2.3944,2.3932,2.3931,2.3926,2.3918,2.3915,2.3908,2.3906,2.3899,2.3895,2.389,2.388,2.3877,2.3876,2.3869,2.3871,2.3871,2.3871,2.3871,2.3884,2.387,2.387,2.387,2.387,0,2.3967,2.3967,2.3953,2.3952,2.3951,2.394,2.3939,2.3933,2.3926,2.3923,2.3913,2.391,2.3898,2.3893,2.3886,2.3882,2.3881,2.3876,2.3874,2.3877,2.3877,2.3874,2.3873,2.387,2.387,2.387,2.387,0,2.3982,2.3973,2.397,2.3959,2.3956,2.3956,2.3946,2.3944,2.3937,2.3933,2.3931,2.392,2.3914,2.3904,2.3895,2.389,2.3888,2.3885,2.3891,2.3889,2.3892,2.3892,2.3903,2.3903,2.3889,2.389,2.389,0,2.3988,2.3987,2.3976,2.3974,2.3969,2.3965,2.3961,2.3951,2.3948,2.3938,2.3937,2.3931,2.3925,2.3916,2.3907,2.39,2.3896,2.39,2.3895,2.3897,2.3895,2.3895,2.3895,2.3901,2.3902,2.3902,2.3902,0,2.4001,2.3996,2.3992,2.3985,2.3981,2.3976,2.397,2.3968,2.3956,2.3953,2.3947,2.3942,2.3933,2.3927,2.3919,2.3913,2.3905,2.3904,2.3904,2.3906,2.391,2.3907,2.3894,2.3903,2.3903,2.3903,2.3903,2.3903,2.4011,2.4009,2.4001,2.3996,2.3991,2.3985,2.3983,2.3976,2.3971,2.3963,2.3957,2.3951,2.3943,2.3931,2.3925,2.392,2.3917,2.3917,2.3917,2.3917,2.3918,2.3911,2.3919,2.3919,2.3919,2.3919,2.3919,0,2.4022,2.4016,2.4012,2.4004,2.4,2.3994,2.3987,2.3983,2.3979,2.3972,2.3966,2.3959,2.3953,2.3943,2.3935,2.3933,2.393,2.3932,2.3931,2.393,2.3922,2.3922,2.3935,2.3935,2.3935,2.3935,2.3935,2.3935,2.4027,2.4025,2.4019,2.4014,2.4008,2.4003,2.3999,2.3994,2.3988,2.3981,2.3975,2.3969,2.3961,2.3953,2.3946,2.3943,2.3941,2.3944,2.394,2.3932,2.3931,2.3929,2.393,2.3943,2.3943,2.3948,2.3948,2.3948]}]]